Ontario, OR

2:39 PM MDT on March 23, 2017 (GMT -0600)
Ontario Municipal

Weather History for KONO - October, 2012

Change the Weather History Date:

Thursday, October 25, 2012

  Actual Average Record
Temperature  
Mean Temperature 40 °F 46 °F  
Max Temperature 50 °F 61 °F 80 °F (1977)
Min Temperature 30 °F 32 °F 21 °F (1955)
Degree Days  
Heating Degree Days 25 19  
Month to date heating degree days 361 337  
Since 1 July heating degree days 402 471  
Cooling Degree Days 0 0  
Month to date cooling degree days 1 0  
Year to date cooling degree days 1091 851  
Moisture  
Dew Point 31 °F    
Average Humidity 73    
Maximum Humidity 96    
Minimum Humidity 50    
Precipitation  
Precipitation 0.00 in 0.03 in 0.42 in (1956)
Month to date precipitation 0.80 0.46  
Year to date precipitation 6.63 7.11  
Sea Level Pressure  
Sea Level Pressure 30.35 in    
Wind  
Wind Speed 2 mph (West)    
Max Wind Speed 8 mph    
Max Gust Speed 10 mph    
Visibility 8 miles    
Events      
T = Trace of Precipitation, MM = Missing Value Source: NWS Daily Summary

Daily Weather History Graph

Daily Weather History Graph

Search for Another Location

Airport or City:

Trip Planner

Search our weather history database for the weather conditions in past years. The results will help you decide how hot, cold, wet, or windy it might be!

Date:

Astronomy

Oct. 25, 2012 Rise Set
Actual Time 8:16 AM MDT 6:47 PM MDT
Civil Twilight 7:46 AM MDT 7:16 PM MDT
Nautical Twilight 7:12 AM MDT 7:50 PM MDT
Astronomical Twilight 6:39 AM MDT 8:24 PM MDT
Moon 4:42 PM MDT (10/25) 4:09 AM MDT (10/25)
Length of Visible Light 11h 30m
Length of Day
10h 31m
Waxing Gibbous, 85% of the Moon is Illuminated
Oct 25
Waxing Gibbous
Oct 29
Full
Nov 6
Last Quarter
Nov 13
New
Nov 20
First Quarter

Hourly Weather History & Observations

Time (MDT) Temp. Windchill Dew Point Humidity Pressure Visibility Wind Dir Wind Speed Gust Speed Precip Events Conditions
12:53 AM 36.0 °F 33.3 °F 34.0 °F 93% 30.23 in 9.0 mi West 3.5 mph - N/A   Partly Cloudy
1:53 AM 34.0 °F - 30.9 °F 89% 30.23 in 8.0 mi Calm Calm - N/A   Mostly Cloudy
2:31 AM 33.8 °F - 30.2 °F 87% 30.19 in 9.0 mi Calm Calm - N/A   Mostly Cloudy
2:53 AM 33.1 °F 30.0 °F 30.9 °F 92% 30.25 in 8.0 mi NW 3.5 mph - N/A   Scattered Clouds
3:53 AM 30.0 °F 25.2 °F 28.0 °F 92% 30.26 in 5.0 mi SW 4.6 mph - N/A   Partly Cloudy
4:15 AM 33.8 °F 30.8 °F 32.0 °F 93% 30.21 in 6.0 mi WSW 3.5 mph - N/A   Mostly Cloudy
4:53 AM 33.1 °F 30.0 °F 30.9 °F 92% 30.27 in 6.0 mi WSW 3.5 mph - N/A   Overcast
5:53 AM 33.1 °F 30.0 °F 32.0 °F 96% 30.29 in 7.0 mi South 3.5 mph - N/A   Overcast
6:11 AM 33.8 °F - 30.2 °F 87% 30.24 in 6.0 mi Calm Calm - N/A   Scattered Clouds
6:53 AM 30.9 °F 27.5 °F 28.9 °F 92% 30.31 in 4.0 mi West 3.5 mph - N/A   Clear
7:32 AM 30.2 °F 25.4 °F 28.4 °F 93% 30.27 in 1.5 mi SW 4.6 mph - N/A   Scattered Clouds
7:36 AM 30.2 °F 25.4 °F 28.4 °F 93% 30.27 in 0.8 mi WSW 4.6 mph - N/A   Mist
7:53 AM 30.9 °F 24.3 °F 28.9 °F 92% 30.33 in 3.0 mi WSW 6.9 mph - N/A   Mostly Cloudy
8:53 AM 32.0 °F 27.5 °F 30.0 °F 92% 30.36 in 4.0 mi WSW 4.6 mph - N/A   Overcast
9:53 AM 33.1 °F - 30.9 °F 92% 30.38 in 5.0 mi Calm Calm - N/A   Overcast
10:53 AM 37.9 °F - 33.1 °F 83% 30.40 in 10.0 mi Calm Calm - N/A   Mostly Cloudy
11:53 AM 42.1 °F - 35.1 °F 76% 30.40 in 10.0 mi Calm Calm - N/A   Clear
12:53 PM 44.1 °F - 35.1 °F 71% 30.41 in 10.0 mi Calm Calm - N/A   Clear
1:53 PM 48.9 °F - 35.1 °F 59% 30.41 in 10.0 mi NNE 4.6 mph - N/A   Clear
2:53 PM 50.0 °F - 35.1 °F 57% 30.41 in 10.0 mi North 4.6 mph - N/A   Mostly Cloudy
3:53 PM 48.9 °F - 33.1 °F 54% 30.42 in 10.0 mi North 3.5 mph - N/A   Overcast
4:53 PM 48.9 °F - 32.0 °F 52% 30.43 in 10.0 mi West 3.5 mph - N/A   Overcast
5:53 PM 48.9 °F - 30.9 °F 50% 30.43 in 10.0 mi Calm Calm - N/A   Partly Cloudy
7:53 PM 42.1 °F 40.2 °F 32.0 °F 67% 30.48 in 10.0 mi NNW 3.5 mph - N/A   Clear
8:53 PM 39.0 °F - 30.0 °F 70% 30.49 in 10.0 mi Calm Calm - N/A   Clear
10:53 PM 33.1 °F - 28.0 °F 82% 30.51 in 10.0 mi Calm Calm - N/A   Clear
11:53 PM 30.0 °F - 27.0 °F 88% 30.51 in 10.0 mi Calm Calm - N/A   Clear